| time (UTC) | temp F | wind direction | speed MPH | gust MPH | rain 1hr in | rain 24hr in | rain mn in | humidity % | barometer mb |
| 20260903062515 | 80 | 0.0 | 0.0 | 0.00 | 0.00 | 0.00 | 82 | 987.5 | |
| 20260903061515 | 80 | 0.0 | 6.0 | 0.00 | 0.00 | 0.00 | 82 | 987.5 | |
| 20260903060516 | 80 | 79 | 1.0 | 5.0 | 0.00 | 0.00 | 0.00 | 81 | 987.6 |
| 20260903055515 | 80 | 79 | 2.0 | 6.0 | 0.00 | 0.00 | 0.00 | 81 | 987.8 |
| 20260903054535 | 80 | 90 | 3.0 | 12.0 | 0.00 | 0.00 | 0.00 | 80 | 987.9 |
| 20260903053515 | 80 | 77 | 3.0 | 9.0 | 0.00 | 0.00 | 0.00 | 78 | 987.9 |
| 20260903052515 | 80 | 0.0 | 0.0 | 0.00 | 0.00 | 0.00 | 78 | 987.9 | |
| 20260903051515 | 81 | 87 | 2.0 | 5.0 | 0.00 | 0.00 | 0.00 | 77 | 988.0 |
| 20260903050515 | 81 | 103 | 2.0 | 8.0 | 0.00 | 0.00 | 0.00 | 76 | 988.1 |
| 20260903045516 | 81 | 88 | 1.0 | 8.0 | 0.00 | 0.00 | 0.00 | 75 | 988.1 |
| 20260903044516 | 82 | 149 | 2.0 | 7.0 | 0.00 | 0.00 | 0.00 | 74 | 988.2 |
| 20260903043516 | 82 | 109 | 2.0 | 14.0 | 0.00 | 0.00 | 0.00 | 72 | 988.0 |
| 20260903042516 | 83 | 82 | 4.0 | 10.0 | 0.00 | 0.00 | 0.00 | 71 | 988.1 |
| 20260903041536 | 83 | 144 | 1.0 | 4.0 | 0.00 | 0.00 | 0.00 | 70 | 988.1 |
| 20260903040516 | 83 | 74 | 4.0 | 8.0 | 0.00 | 0.00 | 0.00 | 69 | 988.1 |
| 20260903035516 | 84 | 197 | 0.0 | 2.0 | 0.00 | 0.00 | 0.00 | 68 | 988.1 |
| 20260903034516 | 84 | 0.0 | 6.0 | 0.00 | 0.00 | 0.00 | 68 | 988.1 | |
| 20260903033516 | 84 | 0.0 | 3.0 | 0.00 | 0.00 | 0.00 | 67 | 988.1 | |
| 20260903032556 | 84 | 0.0 | 0.0 | 0.00 | 0.00 | 0.00 | 66 | 988.1 | |
| 20260903031536 | 85 | 105 | 2.0 | 5.0 | 0.00 | 0.00 | 0.00 | 65 | 988.1 |
| 20260903030516 | 85 | 65 | 1.0 | 9.0 | 0.00 | 0.00 | 0.00 | 64 | 988.0 |
| 20260903025536 | 85 | 0.0 | 4.0 | 0.00 | 0.00 | 0.00 | 63 | 988.0 | |
| 20260903024516 | 86 | 114 | 0.0 | 2.0 | 0.00 | 0.00 | 0.00 | 63 | 988.0 |
| 20260903023536 | 86 | 86 | 0.0 | 5.0 | 0.00 | 0.00 | 0.00 | 62 | 987.9 |
| 20260903022536 | 87 | 156 | 1.0 | 3.0 | 0.00 | 0.00 | 0.00 | 61 | 987.8 |
| 20260903021516 | 88 | 150 | 2.0 | 6.0 | 0.00 | 0.00 | 0.00 | 59 | 987.5 |
| 20260903020516 | 89 | 132 | 0.0 | 7.0 | 0.00 | 0.00 | 0.00 | 58 | 987.3 |
| 20260903015516 | 89 | 145 | 0.0 | 2.0 | 0.00 | 0.00 | 0.00 | 55 | 987.2 |
| 20260903014516 | 90 | 77 | 5.0 | 11.0 | 0.00 | 0.00 | 0.00 | 53 | 987.0 |
| 20260903013516 | 90 | 130 | 0.0 | 3.0 | 0.00 | 0.00 | 0.00 | 52 | 986.8 |
| 20260903012516 | 91 | 82 | 4.0 | 8.0 | 0.00 | 0.00 | 0.00 | 52 | 986.7 |
| 20260903011516 | 91 | 87 | 1.0 | 4.0 | 0.00 | 0.00 | 0.00 | 51 | 986.5 |
| 20260903010516 | 91 | 74 | 1.0 | 3.0 | 0.00 | 0.00 | 0.00 | 52 | 986.5 |
| 20260903005516 | 92 | 146 | 2.0 | 4.0 | 0.00 | 0.00 | 0.00 | 52 | 986.5 |
| 20260903004516 | 92 | 140 | 1.0 | 3.0 | 0.00 | 0.00 | 0.00 | 53 | 986.4 |
| 20260903003516 | 92 | 156 | 0.0 | 2.0 | 0.00 | 0.00 | 0.00 | 54 | 986.4 |
| 20260903002516 | 92 | 154 | 1.0 | 2.0 | 0.00 | 0.00 | 0.00 | 57 | 986.4 |
| 20260903001516 | 92 | 0.0 | 0.0 | 0.00 | 0.00 | 0.00 | 59 | 986.3 | |
| 20260903000536 | 91 | 0.0 | 0.0 | 0.00 | 0.00 | 0.00 | 60 | 986.3 | |
| 20260902235516 | 91 | 0.0 | 0.0 | 0.00 | 0.00 | 0.00 | 60 | 986.3 | |
| 20260902234516 | 91 | 154 | 0.0 | 1.0 | 0.00 | 0.00 | 0.00 | 60 | 986.3 |
| 20260902233516 | 91 | 0.0 | 1.0 | 0.00 | 0.00 | 0.00 | 59 | 986.3 | |
| 20260902232516 | 91 | 0.0 | 0.0 | 0.00 | 0.00 | 0.00 | 59 | 986.3 | |
| 20260902231536 | 92 | 156 | 0.0 | 3.0 | 0.00 | 0.00 | 0.00 | 56 | 986.2 |
| 20260902230536 | 94 | 127 | 3.0 | 6.0 | 0.00 | 0.00 | 0.00 | 50 | 986.2 |
| 20260902225536 | 97 | 95 | 3.0 | 11.0 | 0.00 | 0.00 | 0.00 | 44 | 986.1 |
| 20260902224536 | 99 | 87 | 3.0 | 5.0 | 0.00 | 0.00 | 0.00 | 42 | 985.8 |
| 20260902223516 | 98 | 29 | 2.0 | 5.0 | 0.00 | 0.00 | 0.00 | 42 | 985.9 |
| 20260902222536 | 98 | 62 | 2.0 | 4.0 | 0.00 | 0.00 | 0.00 | 42 | 985.8 |
| 20260902221536 | 98 | 89 | 4.0 | 7.0 | 0.00 | 0.00 | 0.00 | 41 | 986.1 |
| 20260902220516 | 99 | 79 | 4.0 | 8.0 | 0.00 | 0.00 | 0.00 | 41 | 986.1 |
| 20260902215516 | 98 | 77 | 2.0 | 6.0 | 0.00 | 0.00 | 0.00 | 41 | 986.1 |
| 20260902214517 | 99 | 104 | 0.0 | 1.0 | 0.00 | 0.00 | 0.00 | 41 | 986.2 |
| 20260902213516 | 98 | 0.0 | 5.0 | 0.00 | 0.00 | 0.00 | 41 | 986.3 | |
| 20260902212516 | 98 | 0.0 | 2.0 | 0.00 | 0.00 | 0.00 | 40 | 986.4 | |
| 20260902211516 | 98 | 90 | 1.0 | 5.0 | 0.00 | 0.00 | 0.00 | 41 | 986.4 |
| 20260902210536 | 98 | 80 | 2.0 | 6.0 | 0.00 | 0.00 | 0.00 | 42 | 986.6 |
| 20260902205516 | 98 | 344 | 0.0 | 1.0 | 0.00 | 0.00 | 0.00 | 42 | 986.8 |
| 20260902204536 | 98 | 336 | 1.0 | 2.0 | 0.00 | 0.00 | 0.00 | 42 | 986.9 |
| 20260902203556 | 98 | 81 | 3.0 | 10.0 | 0.00 | 0.00 | 0.00 | 43 | 987.1 |
| 20260902202516 | 98 | 0.0 | 0.0 | 0.00 | 0.00 | 0.00 | 43 | 987.2 | |
| 20260902201516 | 97 | 339 | 1.0 | 3.0 | 0.00 | 0.00 | 0.00 | 44 | 987.3 |
| 20260902200516 | 97 | 78 | 0.0 | 3.0 | 0.00 | 0.00 | 0.00 | 44 | 987.5 |
| 20260902195536 | 97 | 0.0 | 0.0 | 0.00 | 0.00 | 0.00 | 44 | 987.7 | |
| 20260902194536 | 97 | 321 | 0.0 | 2.0 | 0.00 | 0.00 | 0.00 | 44 | 987.9 |
| 20260902193536 | 96 | 78 | 1.0 | 6.0 | 0.00 | 0.00 | 0.00 | 44 | 988.0 |
| 20260902192536 | 96 | 97 | 0.0 | 4.0 | 0.00 | 0.00 | 0.00 | 44 | 988.2 |
| 20260902191516 | 96 | 70 | 0.0 | 2.0 | 0.00 | 0.00 | 0.00 | 45 | 988.4 |
| 20260902190516 | 95 | 102 | 3.0 | 4.0 | 0.00 | 0.00 | 0.00 | 45 | 988.4 |
| 20260902185516 | 95 | 81 | 2.0 | 5.0 | 0.00 | 0.00 | 0.00 | 47 | 988.6 |
| 20260902184536 | 95 | 80 | 0.0 | 2.0 | 0.00 | 0.00 | 0.00 | 50 | 988.7 |
| 20260902183515 | 95 | 0.0 | 0.0 | 0.00 | 0.00 | 0.00 | 50 | 988.8 | |
| 20260902182516 | 95 | 56 | 0.0 | 2.0 | 0.00 | 0.00 | 0.00 | 50 | 989.2 |
| 20260902181516 | 95 | 69 | 3.0 | 7.0 | 0.00 | 0.00 | 0.00 | 50 | 989.3 |
| 20260902180516 | 93 | 0.0 | 0.0 | 0.00 | 0.00 | 0.00 | 53 | 989.5 | |
| 20260902175536 | 94 | 0.0 | 0.0 | 0.00 | 0.00 | 0.00 | 53 | 989.7 | |
| 20260902174516 | 93 | 1 | 0.0 | 1.0 | 0.00 | 0.00 | 0.00 | 53 | 989.9 |
| 20260902173516 | 94 | 159 | 0.0 | 2.0 | 0.00 | 0.00 | 0.00 | 52 | 990.1 |
| 20260902172516 | 93 | 135 | 0.0 | 4.0 | 0.00 | 0.00 | 0.00 | 54 | 990.2 |
| 20260902171516 | 92 | 76 | 1.0 | 4.0 | 0.00 | 0.00 | 0.00 | 55 | 990.4 |
| 20260902170516 | 91 | 0.0 | 0.0 | 0.00 | 0.00 | 0.00 | 57 | 990.6 | |
| 20260902165516 | 91 | 0.0 | 3.0 | 0.00 | 0.00 | 0.00 | 55 | 990.7 | |
| 20260902164516 | 91 | 72 | 1.0 | 4.0 | 0.00 | 0.00 | 0.00 | 56 | 990.8 |
| 20260902163515 | 91 | 184 | 0.0 | 1.0 | 0.00 | 0.00 | 0.00 | 57 | 990.8 |
| 20260902162516 | 90 | 0.0 | 0.0 | 0.00 | 0.00 | 0.00 | 60 | 990.8 | |
| 20260902161516 | 90 | 95 | 0.0 | 2.0 | 0.00 | 0.00 | 0.00 | 60 | 990.9 |
| 20260902160536 | 90 | 80 | 2.0 | 4.0 | 0.00 | 0.00 | 0.00 | 59 | 990.9 |
| 20260902155516 | 90 | 0.0 | 0.0 | 0.00 | 0.00 | 0.00 | 62 | 990.9 | |
| 20260902154516 | 89 | 175 | 0.0 | 2.0 | 0.00 | 0.00 | 0.00 | 63 | 991.0 |
| 20260902153516 | 89 | 204 | 1.0 | 3.0 | 0.00 | 0.00 | 0.00 | 64 | 991.0 |
| 20260902152515 | 87 | 0.0 | 0.0 | 0.00 | 0.00 | 0.00 | 67 | 990.9 | |
| 20260902151515 | 86 | 0.0 | 0.0 | 0.00 | 0.00 | 0.00 | 69 | 990.9 | |
| 20260902150516 | 86 | 0.0 | 1.0 | 0.00 | 0.00 | 0.00 | 68 | 990.8 | |
| 20260902145556 | 87 | 158 | 0.0 | 2.0 | 0.00 | 0.00 | 0.00 | 67 | 990.8 |
| 20260902144516 | 86 | 0.0 | 0.0 | 0.00 | 0.00 | 0.00 | 70 | 990.7 | |
| 20260902143515 | 85 | 0.0 | 2.0 | 0.00 | 0.00 | 0.00 | 71 | 990.8 | |
| 20260902142536 | 85 | 0.0 | 0.0 | 0.00 | 0.00 | 0.00 | 73 | 990.7 | |
| 20260902141516 | 84 | 0.0 | 2.0 | 0.00 | 0.00 | 0.00 | 74 | 990.7 | |
| 20260902140516 | 84 | 0.0 | 2.0 | 0.00 | 0.00 | 0.00 | 74 | 990.7 | |
| 20260902135515 | 83 | 0.0 | 1.0 | 0.00 | 0.00 | 0.00 | 76 | 990.7 | |
| 20260902134516 | 82 | 0.0 | 2.0 | 0.00 | 0.00 | 0.00 | 78 | 990.6 | |
| 20260902133515 | 81 | 0.0 | 0.0 | 0.00 | 0.00 | 0.00 | 79 | 990.6 | |
| 20260902132516 | 81 | 0.0 | 6.0 | 0.00 | 0.00 | 0.00 | 79 | 990.6 | |
| 20260902131517 | 80 | 82 | 0.0 | 1.0 | 0.00 | 0.00 | 0.00 | 79 | 990.7 |
| 20260902130515 | 80 | 0.0 | 0.0 | 0.00 | 0.00 | 0.00 | 80 | 990.6 | |
| 20260902125535 | 80 | 0.0 | 0.0 | 0.00 | 0.00 | 0.00 | 80 | 990.4 | |
| 20260902124516 | 80 | 0.0 | 0.0 | 0.00 | 0.00 | 0.00 | 80 | 990.3 | |
| 20260902123536 | 79 | 0.0 | 0.0 | 0.00 | 0.00 | 0.00 | 81 | 990.2 | |
| 20260902122515 | 77 | 0.0 | 0.0 | 0.00 | 0.00 | 0.00 | 85 | 990.1 | |
| 20260902121516 | 77 | 0.0 | 0.0 | 0.00 | 0.00 | 0.00 | 85 | 990.1 | |
| 20260902120516 | 77 | 0.0 | 0.0 | 0.00 | 0.00 | 0.00 | 85 | 990.1 | |
| 20260902115516 | 77 | 0.0 | 0.0 | 0.00 | 0.00 | 0.00 | 85 | 990.0 | |
| 20260902114515 | 77 | 0.0 | 0.0 | 0.00 | 0.00 | 0.00 | 84 | 990.1 | |
| 20260902113516 | 77 | 0.0 | 0.0 | 0.00 | 0.00 | 0.00 | 84 | 990.2 | |
| 20260902112515 | 77 | 0.0 | 0.0 | 0.00 | 0.00 | 0.00 | 83 | 990.2 | |
| 20260902111516 | 78 | 0.0 | 0.0 | 0.00 | 0.00 | 0.00 | 82 | 990.1 | |
| 20260902110516 | 78 | 0.0 | 0.0 | 0.00 | 0.00 | 0.00 | 81 | 990.1 | |
| 20260902105515 | 78 | 0.0 | 0.0 | 0.00 | 0.00 | 0.00 | 81 | 990.1 | |
| 20260902104516 | 78 | 0.0 | 0.0 | 0.00 | 0.00 | 0.00 | 81 | 990.0 | |
| 20260902103515 | 78 | 0.0 | 0.0 | 0.00 | 0.00 | 0.00 | 80 | 990.0 | |
| 20260902102515 | 78 | 0.0 | 0.0 | 0.00 | 0.00 | 0.00 | 79 | 990.0 | |
| 20260902101516 | 79 | 0.0 | 0.0 | 0.00 | 0.00 | 0.00 | 79 | 990.0 | |
| 20260902100516 | 79 | 0.0 | 0.0 | 0.00 | 0.00 | 0.00 | 78 | 990.0 | |
| 20260902095516 | 79 | 0.0 | 0.0 | 0.00 | 0.00 | 0.00 | 77 | 990.0 | |
| 20260902094516 | 79 | 0.0 | 0.0 | 0.00 | 0.00 | 0.00 | 76 | 990.0 | |
| 20260902093515 | 80 | 0.0 | 0.0 | 0.00 | 0.00 | 0.00 | 75 | 989.9 | |
| 20260902092516 | 80 | 0.0 | 0.0 | 0.00 | 0.00 | 0.00 | 74 | 989.9 | |
| 20260902091516 | 81 | 0.0 | 0.0 | 0.00 | 0.00 | 0.00 | 73 | 989.9 | |
| 20260902090516 | 81 | 0.0 | 0.0 | 0.00 | 0.00 | 0.00 | 71 | 989.9 | |
| 20260902085515 | 82 | 0.0 | 0.0 | 0.00 | 0.00 | 0.00 | 70 | 989.8 | |
| 20260902084516 | 82 | 0.0 | 0.0 | 0.00 | 0.00 | 0.00 | 69 | 989.8 | |
| 20260902083516 | 83 | 0.0 | 0.0 | 0.00 | 0.00 | 0.00 | 68 | 989.8 | |
| 20260902082535 | 83 | 0.0 | 0.0 | 0.00 | 0.00 | 0.00 | 68 | 989.7 | |
| 20260902081515 | 83 | 0.0 | 0.0 | 0.00 | 0.00 | 0.00 | 67 | 989.8 | |
| 20260902080515 | 83 | 0.0 | 0.0 | 0.00 | 0.00 | 0.00 | 67 | 989.9 | |
| 20260902075516 | 83 | 0.0 | 0.0 | 0.00 | 0.00 | 0.00 | 67 | 989.9 | |
| 20260902074535 | 83 | 0.0 | 0.0 | 0.00 | 0.00 | 0.00 | 67 | 989.9 | |
| 20260902073515 | 84 | 0.0 | 0.0 | 0.00 | 0.00 | 0.00 | 66 | 989.9 | |
| 20260902072516 | 84 | 0.0 | 1.0 | 0.00 | 0.00 | 0.00 | 67 | 989.9 | |
| 20260902071516 | 84 | 0.0 | 0.0 | 0.00 | 0.00 | 0.00 | 67 | 989.9 | |
| 20260902070515 | 84 | 132 | 0.0 | 2.0 | 0.00 | 0.00 | 0.00 | 67 | 989.9 |
| 20260902065516 | 84 | 0.0 | 0.0 | 0.00 | 0.00 | 0.00 | 67 | 989.8 | |
| 20260902064516 | 84 | 0.0 | 2.0 | 0.00 | 0.00 | 0.00 | 67 | 989.8 | |
| 20260902063515 | 85 | 0.0 | 0.0 | 0.00 | 0.00 | 0.00 | 66 | 989.8 |